Location: Erlach
(47.0430°N, 7.0996°E)
Time: 17:48:24
(UTC+00:00)

IRS-P3 - Pass Details

Date: 07 June 2020
Orbit: 813 x 819 km, 98.8° (Epoch: 09 July)

Event Time Altitude Azimuth Distance (km) Brightness Sun altitude
Rises 01:57:02 0° 16° (NNE) 3,352 8.8 -12.8°
Reaches altitude 10° 01:59:24 10° 19° (NNE) 2,415 7.9 -12.5°
Maximum altitude 02:04:44 71° 103° (ESE) 863 4.3 -12.0°
Enters shadow 02:09:51 11° 187° (S) 2,330 6.0 -11.5°
